www.pogodaiklimat.ru
ПОГОДА в Мэй Сарьян
Время
(UTC), дата
00 10.01
03 10.01
06 10.01
09 10.01
12 10.01
15 10.01
18 10.01
21 10.01
00 11.01
03 11.01
06 11.01
09 11.01
12 11.01
15 11.01
18 11.01
21 11.01
00 12.01
03 12.01
06 12.01
09 12.01
12 12.01
15 12.01
18 12.01
21 12.01
00 13.01
03 13.01
06 13.01
09 13.01
12 13.01
15 13.01
18 13.01
21 13.01
00 14.01
03 14.01
06 14.01
09 14.01
12 14.01
15 14.01
18 14.01
21 14.01
00 15.01
03 15.01
06 15.01
09 15.01
12 15.01
15 15.01
18 15.01
21 15.01
00 16.01
03 16.01
06 16.01
09 16.01
12 16.01
15 16.01
18 16.01
Ветер
(напр.,м/с)
Видим. Явления Облачность Т
(С)
Тd
(С)
f
(%)
Тe
(С)
Тes
(С)
Комфортность P
(гПа)
Po
(гПа)
Тmin
(С)
Tmax
(С)
R
(мм)
R24
(мм)
S
(см)
штиль 0 4000 м дымка 10/4 600 м
[Sc Ac und Cs]
+21.0 +19.4 91 +25 +25 комфорт 1012.6 987.9 +19.5
штиль 0 8000 м мгла 6/3 600 м
[Cu med, cong Ac und Cs]
+25.8 +18.6 64 +31 +36 очень
душно
1013.1 988.8
штиль 0 8000 м мгла 4/3 600 м
[Cu med, cong Cs]
+31.3 +18.5 47 +36 +48 очень
душно
1009.6 985.8
штиль 0 9000 м мгла 4/3 600 м
[Sc Cs]
+33.0 +19.3 44 +38 +42 очень
душно
1006.6 983.0
штиль 0 8000 м дымка 3/3 600 м
[Cu med, cong]
+27.2 +20.5 67 +34 +34 очень
душно
1008.4 984.3 +33.9
штиль 0 8000 м дымка ясно +23.5 +20.1 81 +29 +29 душно 1011.2 986.8
штиль 0 6000 м дымка ясно +21.2 +19.3 89 +26 +26 душно 1011.8 987.2
штиль 0 5000 м дымка ясно +19.8 +18.5 92 +22 +22 комфорт 1011.2 986.5
штиль 0 5000 м дымка 8/4 600 м
[Sc Ac und Cs]
+20.5 +19.4 93 +24 +24 комфорт 1013.4 988.7 +19.5
штиль 0 7000 м дымка 8/4 600 м
[Sc Ac und Cs]
+25.0 +19.4 71 +30 +34 душно 1015.1 990.7
штиль 0 9000 м мгла 3/3 600 м
[Cu med, cong]
+32.0 +18.1 44 +37 +49 очень
душно
1010.9 987.2
штиль 0 9000 м мгла 3/3 600 м
[Cu med, cong]
+34.3 +16.5 35 +37 +41 очень
душно
1007.8 984.3
штиль 0 9000 м мгла 8/3 600 м
[Sc Ac und Cs]
+30.4 +19.0 51 +36 +36 очень
душно
1009.2 985.4 +35.0
штиль 0 8000 м мгла 4/3 600 м
[Sc Cs]
+27.0 +17.5 56 +31 +31 душно 1012.8 988.6
штиль 0 6000 м мгла 8/4 600 м
[Sc Ac und Cs]
+24.0 +16.7 64 +28 +28 душно 1013.6 989.1
штиль 0 5000 м дымка 8/4 600 м
[Sc Ac und Cs]
+23.4 +17.6 70 +29 +29 душно 1012.8 988.3
штиль 0 5000 м дымка 4/3 600 м
[Cu med, cong Ci fib]
+21.5 +15.6 69 +25 +25 комфорт 1014.9 990.2 +20.2
штиль 0 9000 м мгла ясно +26.0 +15.7 53 +29 +40 душно 1016.7 992.4
штиль 0 9000 м мгла 3/3 600 м
[Sc]
+28.3 +14.1 42 +30 +43 жарко 1014.3 990.2
В 9 9000 м мгла ясно +25.5 +12.5 44 +27 +28 жарко 1012.8 988.5
СВ 6 8000 м мгла ясно +20.4 +12.0 59 +22 +22 комфорт 1014.2 989.5 +28.5
штиль 0 8000 м дымка ясно +19.0 +12.6 66 +20 +20 1016.4 991.4
штиль 0 6000 м дымка ясно +16.5 +12.9 79 +16 +16 1016.6 991.5
штиль 0 5000 м дымка ясно +14.3 +12.8 91 +14 +14 1015.6 990.3
штиль 0 4000 м дымка ясно +13.2 +12.5 96 +13 +13 1016.7 991.3 +12.0
штиль 0 8000 м дымка 4/3 600 м
[Sc Ac trans Cs]
+19.0 +12.8 67 +20 +27 1017.7 992.7
штиль 0 8000 м мгла 4/3 600 м
[Cu hum Ci fib]
+26.0 +13.2 45 +28 +40 жарко 1013.3 989.0
штиль 0 8000 м мгла 3/0
[Cs]
+29.0 +15.1 43 +32 +37 душно 1009.6 985.6
штиль 0 8000 м дымка 3/0
[Cs]
+23.6 +16.9 66 +27 +27 жарко 1011.0 986.6 +30.0
штиль 0 8000 м дымка ясно +19.0 +16.1 83 +20 +20 1013.3 988.5
штиль 0 5000 м дымка ясно +17.5 +13.0 75 +18 +18 1013.9 988.9
штиль 0 5000 м дымка ясно +15.2 +13.4 89 +15 +15 1013.5 988.3
штиль 0 3000 м дымка ясно +14.4 +13.7 96 +14 +14 1015.1 989.8 +13.4
штиль 0 8000 м дымка ясно +20.0 +15.8 77 +22 +33 комфорт 1016.2 991.3
штиль 0 8000 м мгла 3/3 600 м
[Sc]
+27.9 +15.9 48 +31 +43 душно 1011.7 987.6
штиль 0 8000 м мгла 4/4 600 м
[Sc]
+29.9 +14.6 39 +32 +35 жарко 1008.9 985.0
штиль 0 8000 м мгла 3/3 600 м
[Cu med, cong]
+24.4 +17.1 64 +28 +28 душно 1010.3 985.9 +30.3
штиль 0 8000 м дымка ясно +19.6 +16.3 81 +22 +22 комфорт 1012.4 987.6
штиль 0 6000 м дымка ясно +16.9 +15.3 90 +17 +17 1012.6 987.6
штиль 0 5000 м дымка ясно +15.4 +14.7 96 +15 +15 1012.0 986.9
штиль 0 <100 м туман ?/? +14.2 +13.8 97 +14 +14 1013.0 987.8 +12.5
штиль 0 6000 м дымка {туман} 3/0
[Cs]
+19.5 +15.8 79 +21 +31 комфорт 1015.4 990.6
штиль 0 8000 м мгла 3/3 600 м
[Cu hum Cs]
+28.5 +14.4 42 +31 +43 душно 1009.5 985.5
штиль 0 8000 м мгла 3/3 600 м
[Cu hum Cs]
+31.0 +13.5 34 +32 +36 жарко 1006.8 983.1
штиль 0 8000 м мгла 3/0
[Cs]
+23.5 +15.1 59 +26 +26 жарко 1009.2 984.8 +31.7
штиль 0 8000 м мгла ясно +22.0 +14.3 62 +25 +25 комфорт 1011.2 986.7
штиль 0 6000 м дымка ясно +15.0 +13.2 89 +15 +15 1012.2 987.0
штиль 0 5000 м дымка ясно +14.8 +13.4 91 +14 +14 1011.6 986.5
штиль 0 200 м туман ?/? +12.0 +11.4 96 +11 +11 1013.9 988.4 +11.5
штиль 0 6000 м дымка {туман} ясно +19.0 +14.9 77 +20 +31 1014.4 989.5
штиль 0 8000 м мгла ясно +29.5 +13.6 38 +31 +49 жарко 1009.4 985.5
штиль 0 9000 м мгла ясно +31.5 +11.9 30 +32 +37 жарко 1006.9 983.2
штиль 0 8000 м мгла ясно +24.0 +14.8 56 +27 +27 жарко 1010.2 985.8 +32.4
штиль 0 7000 м дымка ясно +18.4 +16.0 86 +19 +19 1011.7 986.9
штиль 0 6000 м дымка ясно +16.0 +14.2 89 +16 +16 1013.0 987.9
Местоположение метеостанции Мэй Сарьян (Таиланд): широта 18.17 долгота 97.93 высота над уровнем моря 213 м.
В архиве по умолчанию представлена погода в Мэй Сарьян за последнюю неделю. Архивные данные за месяц целиком и за предыдущие месяцы, начиная с января 2011 года, Вы можете получить, выбрав интересующий диапазон дат из раскрывающегося списка и нажав кнопку "Найти!".
*Определитесь, кто Вы:
Внимание! Время в таблицах - всемирное. Для получения местного времени необходимо прибавить поправку, которая равна 7 ч.
Смотрите также архив погоды в соседних городах и на ближайших метеорологических станциях:
Партнеры нашего сайта:      
Пояснения к столбцам:
  • Ветер - указаны скорость ветра в м/с - средняя за 10 мин, порывы в срок и между сроками (в фигурных скобках) и направление, откуда дует ветер: С - северный,
  • СВ - северо-восточный, В - восточный, ЮВ - юго-восточный, Ю - южный, ЮЗ - юго-западный, З - западный, СЗ - северо-западный.
  • Видимость - горизонтальная дальность видимости в метрах или километрах. При видимости от 1 до 10 км при отсутствии осадков обычно наблюдается дымка, при ухудшении видимости до 1 км и менее - туман. В сухую погоду видимость может ухудшаться дымом, пылью или мглою.
  • Явления - указаны атмосферные явления, наблюдавшиеся в срок или в последний час перед сроком; фигурными скобками обозначены явления, наблюдавшиеся между сроками (за 1-3 часа до срока); квадратными скобками обозначены град или гололедные отложения с указанием их диаметра в мм.
  • Облачность - указаны через наклонную черту общая и нижняя облачность в баллах и высота нижней границы облаков в метрах; квадратными скобками обозначены формы облаков: Ci - перистые, Cs - перисто-слоистые, Cc - перисто-кучевые, Ac - высококучевые, As - высокослоистые, Sc - слоисто-кучевые, Ns - слоисто-дождевые, Cu - кучевые, Cb - кучево-дождевые. Подробнее классификацию облаков см. в Атласе облаков (PDF).
  • T - Температура воздуха - температура, измеренная на высоте 2 м над землей.
  • Td - Температура точки росы - температура, при понижении до которой содержащийся в воздухе водяной пар достигнет насыщения.
  • f - Относительная влажность воздуха - влажноcть воздуха, измеренная на высоте 2 м над землей.
  • Te - Эффективная температура - температура, которую ощущает одетый по сезону человек в тени. Характеристика душности погоды. При расчете учитывается влияние влажности воздуха и скорости ветра на теплоощущения человека.
  • Tes - Эффективная температура на солнце - температура, которую ощущает человек, с поправкой на солнечный нагрев. Характеристика знойности погоды. Зависит от высоты солнца над горизонтом, облачности и скорости ветра. Ночью, в пасмурную погоду, а также при ветре 12 м/с и более поправка равна нулю.
  • P - Атмосферное давление - приведенное к уровню моря атмосферное давление.
  • Po - Атмосферное давление - измеренное на уровне метеостанции атмосферное давление.
  • Tmin - Минимальная температура - минимум температуры воздуха на высоте 2 м над землей.
  • Tmax - Максимальная температура - максимум температуры воздуха на высоте 2 м над землей.
  • R - Количество осадков - Количество выпавших осадков за период времени, мм. При наведении курсора мыши на число - период времени, за который выпало указанное количество осадков.
  • R24 - Количество осадков - Количество выпавших осадков за 24 часа, мм.
  • S - Снежный покров - Высота снежного покрова, см. При наведении курсора мыши на число - состояние снежного покрова и степень покрытия местности в баллах.